This is the latest recevied weather packets stored in our database for station/object VK6HGR-1. If no packets are shown the sender has not sent any weather packets the latest 10 day(s).
| Time | Temp. | Humidity | Pressure | Rain* | Wind** | Luminosity | Snow |
|---|---|---|---|---|---|---|---|
| 1777909515 | 15° C | 66% | 1023.4 hPa | - | - | - | - |
| 1777908611 | 15° C | 66% | 1023.3 hPa | - | - | - | - |
| 1777907711 | 15° C | 67% | 1023.5 hPa | - | - | - | - |
| 1777906812 | 15° C | 67% | 1023.5 hPa | - | - | - | - |
| 1777905911 | 15° C | 66% | 1023.6 hPa | - | - | - | - |
| 1777905021 | 15.56° C | 66% | 1023.6 hPa | - | - | - | - |
| 1777904112 | 15.56° C | 66% | 1023.5 hPa | - | - | - | - |
| 1777903212 | 15.56° C | 66% | 1023.5 hPa | - | - | - | - |
| 1777902312 | 15.56° C | 66% | 1023.6 hPa | - | - | - | - |
| 1777901412 | 15.56° C | 66% | 1023.6 hPa | - | - | - | - |
| 1777900511 | 16.11° C | 66% | 1023.5 hPa | - | - | - | - |
| 1777899610 | 16.11° C | 66% | 1023.5 hPa | - | - | - | - |
| 1777898711 | 16.67° C | 66% | 1023.4 hPa | - | - | - | - |
| 1777897810 | 16.67° C | 66% | 1023.3 hPa | - | - | - | - |
| 1777896914 | 17.22° C | 66% | 1023.3 hPa | - | - | - | - |
| 1777896012 | 17.22° C | 66% | 1023.3 hPa | - | - | - | - |
| 1777895111 | 17.78° C | 66% | 1023.5 hPa | - | - | - | - |
| 1777894211 | 17.78° C | 66% | 1023.5 hPa | - | - | - | - |
| 1777893312 | 18.33° C | 65% | 1023.5 hPa | - | - | - | - |
| 1777892412 | 18.33° C | 65% | 1023.4 hPa | - | - | - | - |
| 1777891511 | 18.33° C | 64% | 1023.3 hPa | - | - | - | - |
| 1777890613 | 18.89° C | 63% | 1023 hPa | - | - | - | - |
| 1777889710 | 19.44° C | 62% | 1022.8 hPa | - | - | - | - |
| 1777888813 | 19.44° C | 62% | 1022.5 hPa | - | - | - | - |
| 1777887912 | 20° C | 60% | 1022.3 hPa | - | - | - | - |
* Rain since midnight (hover to see other rain measurements)
** Current wind speed in m/s (hover to see current wind gust speed)